Location: Marysville Observatory
(48.1092°N, 122.1645°W)
Time: 21:38:38
(UTC-07:00)

ISS - Visible Passes

Search period start: 25 May 2016 00:00
Search period end: 04 June 2016 00:00
Orbit: 402 x 404 km, 51.6° (Epoch: 25 May)

Date Brightness Start Highest point End Pass type
(mag) Time Alt. Az. Time Alt. Az. Time Alt. Az.
25 May -2.9 01:00:52 56° NW 01:01:14 63° NNW 01:04:29 10° ENE visible
25 May -2.1 02:34:51 10° WNW 02:38:00 43° N 02:41:09 10° ENE visible
25 May -3.4 04:11:23 10° WNW 04:14:39 90° NNW 04:17:55 10° ESE visible
26 May -3.4 00:08:04 67° WSW 00:08:27 87° NNW 00:11:44 10° ENE visible
26 May -2.1 01:41:59 10° WNW 01:45:08 43° N 01:48:17 10° ENE visible
26 May -2.9 03:18:37 10° WNW 03:21:53 64° NNE 03:25:08 10° E visible
26 May -1.4 21:38:37 10° SSE 21:39:49 12° SE 21:41:02 10° ESE visible
26 May -3.4 23:12:29 10° SW 23:15:43 61° SSE 23:18:57 10° ENE visible
27 May -2.3 00:49:05 10° W 00:52:15 47° N 00:55:27 10° ENE visible
27 May -2.4 02:25:51 10° WNW 02:29:03 50° N 02:32:15 10° E visible
27 May -3.2 04:02:21 10° WNW 04:05:33 51° SSW 04:08:42 10° SE visible
27 May -2.8 22:20:00 10° SW 22:23:03 37° SE 22:26:06 10° ENE visible
27 May -2.7 23:56:11 10° W 23:59:25 58° NNW 00:02:39 10° ENE visible
28 May -2.1 01:33:02 10° WNW 01:36:11 44° N 01:39:20 10° E visible
28 May -3.5 03:09:33 10° WNW 03:12:49 81° SSW 03:16:04 10° ESE visible
28 May -3.3 23:03:20 10° WSW 23:06:36 79° NNW 23:09:53 10° ENE visible
29 May -2.1 00:40:10 10° WNW 00:43:19 42° N 00:46:27 10° ENE visible
29 May -3.1 02:16:46 10° WNW 02:20:02 70° NNE 02:23:18 10° ESE visible
29 May -2.4 03:53:28 10° W 03:56:17 27° SW 03:59:05 10° SSE visible
29 May -3.4 22:10:35 10° WSW 22:13:50 70° SSE 22:17:06 10° ENE visible
29 May -2.2 23:47:15 10° W 23:50:25 45° N 23:53:35 10° ENE visible
30 May -2.6 01:23:59 10° WNW 01:27:12 53° NNE 01:30:25 10° E visible
30 May -3.1 03:00:31 10° WNW 03:03:38 44° SSW 03:06:46 10° SE visible
30 May -2.5 22:54:20 10° W 22:57:33 54° NNW 23:00:47 10° ENE visible
31 May -2.2 00:31:09 10° WNW 00:34:20 45° N 00:37:29 10° E visible
31 May -3.5 02:07:39 10° WNW 02:10:50 70° SW 02:10:50 70° SW visible
31 May -3.0 22:01:27 10° WSW 22:04:43 71° NNW 22:07:59 10° ENE visible
31 May -2.1 23:38:17 10° WNW 23:41:26 42° N 23:44:35 10° ENE visible
01 Jun -3.3 01:14:51 10° WNW 01:18:08 78° NNE 01:18:35 62° E visible
01 Jun -2.1 22:45:22 10° W 22:48:32 44° N 22:51:41 10° ENE visible
02 Jun -2.8 00:22:03 10° WNW 00:25:18 57° NNE 00:26:55 26° E visible
02 Jun -1.1 01:58:37 10° WNW 01:59:29 16° W 01:59:29 16° W visible
02 Jun -2.4 21:52:26 10° W 21:55:38 50° NNW 21:58:50 10° ENE visible
02 Jun -2.3 23:29:14 10° WNW 23:32:25 47° N 23:35:29 11° E visible
03 Jun -2.6 01:05:43 10° WNW 01:08:04 41° W 01:08:04 41° W visible
03 Jun -2.1 22:36:22 10° WNW 22:39:31 43° N 22:42:39 10° ENE visible
